sat.trackr.live / text

‹ back to catalog

STARLINK-36592

NORAD 68007 · 2026-039X

PAYLOAD ACTIVE UNKNOWN

§ Identity

Operator
Country
US
Launch date
2026-02-27
Launch site
AFETR
Launch vehicle
Mass (kg)
RCS (m²)

Purposes: comms

External: N2YO · Heavens-Above · Gunter

§ Orbital elements

Epoch: 2026-05-24T22:28:26.143680Z

Period
94.27 min
Inclination
43.0054°
Eccentricity
0.0001927
Mean motion
15.27587382 rev/d
Perigee alt
481.7 km
Apogee alt
484.3 km
Semi-major
6,861.2 km
B*
6.5220e-4
RAAN
338.3867°
Arg perigee
274.0099°
Mean anomaly
86.0532°
Rev number
1,336

§ Raw data

STARLINK-365921 68007U 26039X   26144.93641370  .00017732  00000+0  65220-3 0  99982 68007  43.0054 338.3867 0001927 274.0099  86.0532 15.27587382 13362

JSON: /api/v1/satellites/68007 · /tle

For live sub-satellite position, see the globe view (requires WebGL).

§ Visibility from observer

Set your observer location to see the next 7 days of passes ≥ 10°. The values pass through the URL so the page stays shareable.

No JS? Fill the form by hand. The geolocation button needs JavaScript.